Theta_e
294 296 296 297 296 296 297 297 297 297 300 301 300 302 305 307 303 300 308 311 309 310 313 315 318 320 321 321 324 322 322 322 327 329 326 324 323 326 329 338 344 345 345 349 352 353 352 350 350 350 350 351 352 353 354 355 354 355 358 357 358 359 360 360 362 364 364 364 364 365 365 365 363 362 362 362 362 363 364 363 361 361 360 360 363 365 365
292 293 294 296 295 296 297 297 298 299 299 300 301 302 304 305 305 308 309 310 310 313 314 318 320 323 322 325 325 324 328 330 336 335 334 329 327 324 325 333 339 346 347 350 353 355 354 351 350 349 350 352 351 351 352 353 355 355 357 357 358 358 359 361 363 365 365 366 366 365 365 365 365 364 363 363 362 363 363 364 364 364 363 362 362 363 364
291 294 296 296 296 295 294 296 298 299 300 300 301 302 303 305 305 306 307 308 309 314 326 325 326 326 324 324 327 329 336 336 337 337 335 334 337 339 340 335 335 342 346 348 354 355 355 352 351 350 351 352 351 351 352 353 354 356 356 357 357 358 360 362 364 365 365 365 366 365 365 365 366 366 364 364 364 365 365 365 365 366 364 363 362 362 363
288 292 293 294 296 296 295 295 297 297 298 298 300 300 304 304 304 306 306 305 306 312 324 325 325 324 325 326 331 330 334 340 340 341 340 341 344 345 346 349 347 337 341 345 349 352 352 351 350 351 352 352 351 350 352 353 353 354 356 357 357 360 361 363 365 365 364 366 366 365 366 366 367 367 366 366 365 366 365 365 366 366 364 364 364 362 362
287 292 294 294 296 295 292 294 297 299 300 302 303 306 311 310 311 306 304 304 313 320 321 321 323 325 325 329 332 335 339 341 340 341 341 343 344 346 348 349 351 349 339 338 347 350 350 350 349 350 352 351 352 352 353 354 355 354 354 356 359 361 361 363 365 366 366 366 365 366 366 367 368 367 366 365 365 365 364 366 366 366 366 364 364 364 362
287 291 293 295 292 286 288 301 304 303 300 301 301 307 308 311 311 310 314 316 318 318 318 319 321 323 328 332 336 339 340 339 340 340 342 343 344 346 348 350 351 354 351 341 339 349 352 352 349 351 354 352 352 353 354 355 354 355 356 358 360 360 362 364 366 367 366 366 366 366 367 368 368 367 366 365 365 364 364 366 366 365 364 365 365 366 364
286 290 292 289 284 287 299 308 307 308 306 305 303 309 310 311 312 312 314 315 314 315 318 319 322 325 326 331 334 337 339 338 336 336 337 340 342 345 348 350 351 354 355 345 338 343 348 349 351 351 352 352 354 353 354 354 355 357 357 358 359 361 362 365 367 366 366 366 366 367 367 367 367 367 366 366 365 364 363 363 364 365 364 364 365 366 365
290 287 287 279 284 297 304 307 309 313 311 309 311 307 309 310 311 311 311 312 313 315 316 319 323 324 327 331 335 339 335 332 332 332 332 336 340 344 348 349 352 354 353 346 335 337 349 347 349 350 351 352 352 352 353 353 353 355 357 358 359 361 363 364 365 366 365 365 366 367 367 366 366 365 366 366 366 364 363 363 364 365 365 364 364 364 364
284 286 286 287 297 297 300 304 305 308 307 309 306 300 305 310 312 311 311 311 312 312 316 319 322 326 327 329 332 332 328 326 328 330 331 334 340 345 349 351 351 353 352 347 339 341 347 347 347 348 351 352 352 351 351 352 354 354 356 358 359 361 361 362 363 365 364 363 365 365 365 365 365 364 365 365 366 367 363 362 361 361 363 363 365 363 364
290 286 285 287 287 284 294 305 308 311 311 310 310 305 302 310 311 312 311 309 311 312 316 318 320 325 327 323 326 325 323 322 323 326 330 335 343 347 349 352 352 349 345 344 342 340 348 348 347 349 352 352 352 352 351 352 353 353 355 356 359 362 361 363 364 364 364 364 364 365 365 364 364 364 364 365 365 366 363 361 358 360 362 363 364 364 363
288 286 282 283 282 290 300 303 305 309 310 312 313 306 300 308 309 310 311 308 309 312 314 315 319 324 321 320 321 318 317 317 319 321 328 337 344 347 350 351 350 344 345 346 343 346 350 346 347 351 352 352 351 351 352 352 352 353 354 357 359 361 361 362 364 364 364 364 365 364 365 365 364 364 364 365 365 365 363 362 360 361 362 362 362 364 362
288 286 283 283 290 289 299 302 304 308 311 310 309 296 295 304 307 309 309 308 307 310 313 314 315 312 313 309 311 313 314 315 317 322 330 338 344 347 350 353 354 352 350 350 345 347 347 347 349 353 352 352 353 352 351 352 352 353 356 358 361 363 362 363 364 364 364 365 365 364 365 366 365 364 365 363 364 363 363 362 361 360 360 361 361 361 362
287 286 285 289 292 301 303 304 306 309 312 310 299 292 298 305 307 308 309 308 307 309 310 311 311 311 311 311 312 313 314 314 317 319 329 339 345 348 349 351 355 352 350 349 347 345 348 352 350 352 351 351 352 355 355 354 353 354 358 361 363 364 364 362 362 363 363 364 364 365 366 366 364 364 364 363 363 364 362 361 361 361 360 360 359 361 361
285 286 284 285 292 301 302 306 307 307 303 296 295 300 306 307 306 306 307 307 307 308 309 311 311 309 310 312 312 312 313 313 315 317 323 336 343 348 350 352 353 353 349 350 348 346 351 352 351 351 352 353 355 356 355 354 356 357 360 363 364 365 364 363 362 363 363 365 365 364 366 367 366 364 365 365 364 363 361 362 363 362 363 362 360 360 362
288 288 284 284 281 296 303 304 305 305 298 295 300 305 307 306 305 305 305 305 306 307 306 309 310 309 309 310 310 311 312 313 314 315 318 329 337 343 348 350 352 353 350 347 346 348 350 350 350 352 352 355 356 357 354 358 358 360 362 364 365 365 365 362 363 363 364 365 365 364 365 367 367 364 364 364 365 366 365 364 364 363 364 364 363 361 364
284 284 282 284 294 298 303 302 296 298 299 302 303 303 304 307 307 305 304 305 306 307 306 306 308 308 308 309 310 309 310 312 314 314 317 324 337 342 347 348 350 352 355 350 347 350 351 352 353 353 354 357 358 357 357 362 361 361 364 365 367 366 364 363 363 364 365 365 366 367 366 367 367 366 365 364 365 365 366 364 363 363 363 365 364 362 361
292 289 292 296 299 301 303 304 302 302 304 305 304 303 305 307 306 308 306 305 306 307 307 306 307 307 307 308 310 308 309 311 311 311 313 320 332 337 343 347 352 352 354 357 349 353 354 355 356 357 358 360 361 359 362 363 363 362 365 367 366 366 364 363 364 365 365 366 367 366 367 367 367 365 366 366 364 367 367 365 364 364 365 365 364 363 361
298 299 299 300 300 302 303 304 305 303 303 305 305 304 303 306 307 307 306 307 307 307 309 306 306 308 309 308 310 310 310 309 311 312 313 319 330 335 342 347 349 351 353 356 356 357 356 355 356 359 362 363 361 361 364 364 364 366 367 368 367 366 365 365 365 364 365 365 368 368 367 367 368 368 366 365 364 366 365 364 366 365 364 364 365 364 361
291 286 297 297 299 302 304 303 304 306 305 305 305 304 305 306 308 308 309 309 310 310 309 308 307 308 310 309 309 310 310 309 310 310 312 318 326 331 335 341 346 351 350 350 352 355 355 358 359 357 359 359 362 365 369 364 362 369 368 368 365 366 365 363 366 365 365 365 366 368 368 365 366 367 366 365 365 365 365 364 365 364 364 364 363 362 361
291 290 296 298 300 302 304 304 303 303 303 303 305 306 307 308 309 309 309 310 310 311 309 309 308 308 310 309 308 309 309 309 310 311 313 318 326 330 335 339 343 346 349 350 350 352 355 357 359 360 361 363 367 367 364 362 363 367 365 365 362 364 363 363 364 364 364 364 364 364 366 365 362 364 366 365 365 365 365 366 365 365 365 363 364 365 362
294 296 297 297 299 302 303 305 305 305 303 302 304 307 306 307 307 308 310 311 311 311 311 310 309 308 309 310 310 310 310 310 310 312 313 319 327 330 333 336 340 342 345 347 350 352 353 356 357 360 363 364 366 368 366 365 368 367 364 362 363 362 361 361 362 365 363 363 362 363 366 367 366 366 368 367 367 368 371 371 369 367 368 366 367 366 365
289 288 292 295 290 293 298 300 303 304 305 304 303 305 305 306 306 308 308 310 312 313 313 313 311 309 310 311 312 310 311 311 311 312 314 321 326 328 332 335 337 340 343 346 347 350 352 354 354 355 358 360 363 367 369 372 373 369 367 365 362 360 359 359 360 362 361 360 362 362 363 365 366 362 313 303 324 367 371 345 343 338 339 369 373 369 367
287 293 296 297 297 297 298 301 303 304 305 304 303 303 304 305 307 308 308 309 310 312 314 315 312 311 310 312 312 311 312 312 313 313 315 321 325 327 331 333 334 337 340 344 345 346 347 349 350 352 354 355 358 361 366 371 371 372 369 364 365 364 367 365 362 365 363 362 364 365 364 365 368 367 361 344 298 296 308 316 308 309 312 313 315 323 363
296 298 297 298 298 296 299 301 303 303 305 305 304 305 306 306 307 308 309 309 309 310 313 314 314 312 312 313 314 314 313 312 312 312 314 319 323 327 330 333 333 335 337 339 343 344 344 345 347 348 348 351 354 358 362 365 369 371 372 369 367 366 368 368 367 372 367 365 366 367 367 368 370 368 365 363 359 304 295 303 304 303 305 308 310 314 313
293 299 299 299 299 300 302 303 303 304 305 306 304 304 305 306 307 309 309 309 311 311 311 312 313 314 314 314 314 314 313 312 314 313 315 319 321 324 326 330 332 334 335 337 340 343 344 344 344 344 344 346 349 353 358 361 363 366 367 367 367 368 369 369 367 369 368 370 370 371 370 371 369 368 365 362 360 359 336 297 296 302 304 302 305 308 310
300 299 300 300 301 301 302 302 302 303 304 305 305 306 308 309 309 309 310 311 311 312 312 312 313 314 314 314 315 314 312 313 316 316 315 316 319 321 324 326 329 334 335 337 338 339 341 343 343 341 341 342 345 350 352 356 358 360 364 365 365 364 365 369 369 369 369 371 370 370 371 370 368 367 364 364 362 363 359 352 346 316 298 296 299 311 309
301 301 300 298 297 298 300 298 298 302 304 305 305 306 307 308 310 311 311 311 311 312 313 314 314 315 314 315 315 313 312 313 316 317 315 315 316 320 323 326 329 330 332 334 335 337 339 340 341 341 340 342 345 348 350 352 355 358 359 360 360 358 359 364 367 366 367 368 367 369 367 368 366 364 365 364 364 363 361 358 357 356 357 340 304 295 321
300 300 300 294 293 295 298 301 302 303 304 304 305 306 308 311 311 312 311 312 313 313 312 313 313 315 313 313 313 311 311 312 313 315 316 315 317 321 324 326 328 329 329 329 331 334 337 339 339 340 340 341 344 346 347 349 350 351 353 354 355 356 358 360 359 361 362 366 365 365 364 364 365 362 363 362 360 360 357 362 359 359 359 356 341 308 299
299 299 300 301 300 301 301 302 302 302 303 305 307 307 310 310 311 311 311 311 312 312 311 311 313 313 313 313 314 312 311 311 312 314 316 318 320 321 324 326 327 328 328 328 328 331 334 335 336 336 337 339 340 343 345 348 348 347 347 348 351 352 353 356 356 358 360 363 364 364 356 360 363 361 360 361 358 360 359 359 358 360 359 348 346 334 323
299 300 299 299 300 300 299 299 299 300 301 303 304 306 308 310 309 310 311 311 312 311 311 312 312 311 313 313 314 312 311 311 312 314 315 317 319 322 325 325 326 326 327 325 327 328 329 331 333 333 334 336 337 340 341 344 346 349 349 349 348 348 350 351 357 357 358 360 358 347 357 360 363 362 361 361 361 358 359 358 359 356 356 353 342 351 351
299 300 300 299 299 299 298 298 299 300 301 302 304 305 306 309 310 310 311 311 312 310 311 311 311 310 311 312 313 314 314 314 315 315 316 317 319 321 324 325 320 320 322 323 326 327 328 330 330 331 333 335 335 337 339 341 342 345 348 347 350 335 330 333 339 354 352 351 353 357 355 356 357 359 356 359 358 358 359 358 354 354 352 351 353 351 339
298 298 298 298 298 297 298 298 298 299 299 301 302 303 305 307 309 310 311 312 311 311 310 311 311 311 311 312 313 312 312 313 314 316 317 320 322 321 324 324 322 321 323 325 326 326 327 327 327 329 332 333 334 335 336 338 341 342 342 344 346 348 344 335 345 347 349 352 351 351 353 352 354 355 356 356 356 356 356 355 353 350 351 349 347 344 338
297 295 295 296 297 297 297 297 297 298 299 300 301 303 305 307 310 311 312 312 312 312 310 310 311 313 314 313 311 309 310 312 313 315 316 318 320 322 324 324 325 323 323 324 325 325 325 324 325 327 328 330 332 334 334 336 338 340 342 343 344 346 346 342 338 346 349 349 350 349 352 351 353 354 354 353 355 354 353 351 351 348 345 341 338 336 333
298 297 298 299 298 297 296 296 298 298 299 300 301 302 303 305 308 311 313 313 311 310 310 311 311 312 313 313 312 312 311 311 313 314 316 319 319 321 322 324 325 324 324 324 322 322 322 324 325 325 326 328 331 332 333 333 333 336 339 342 342 342 347 347 349 348 347 347 347 347 350 350 350 349 349 348 350 349 347 346 343 340 334 330 329 329 312
302 302 302 301 301 301 300 299 298 298 298 298 299 301 302 303 305 308 312 312 311 311 312 312 311 312 313 312 312 313 313 313 312 314 315 316 318 319 321 321 321 321 322 321 317 317 319 322 322 322 324 327 329 330 330 329 330 334 338 338 340 341 343 343 345 345 345 345 346 347 346 345 345 344 343 344 345 345 342 339 335 331 328 327 326 327 324
302 301 302 302 302 302 301 300 299 299 299 299 300 301 301 302 304 305 307 311 312 312 312 312 311 311 311 312 313 314 315 315 315 315 313 314 315 317 316 315 314 314 315 316 315 315 317 319 320 319 322 325 326 328 328 327 329 332 335 336 337 338 340 341 342 342 343 344 343 344 343 340 341 340 342 340 340 339 336 333 331 330 329 328 327 326 327
304 302 301 302 302 302 301 300 300 299 300 300 300 300 300 301 302 304 307 310 312 314 314 313 314 312 312 313 314 313 314 314 314 314 314 314 314 313 313 312 312 311 312 310 311 314 316 317 318 319 321 322 323 324 326 323 326 330 334 335 336 336 337 338 339 340 341 343 341 341 338 339 338 337 335 335 334 332 330 329 328 329 329 328 328 327 326
303 303 302 302 302 302 301 301 301 301 300 300 300 301 302 301 301 302 304 307 309 311 312 312 312 312 311 311 311 310 311 312 312 312 313 312 312 310 309 309 309 310 309 309 313 314 315 316 317 317 318 318 318 321 322 321 323 328 329 329 331 333 334 334 334 335 336 338 336 337 335 334 332 330 328 329 329 328 327 326 325 323 320 319 318 317 317
303 304 303 302 303 302 302 302 302 301 301 300 300 300 302 303 302 301 302 303 307 309 309 309 309 308 308 308 308 308 309 309 310 310 311 311 311 309 307 308 309 310 311 312 313 314 315 315 315 315 315 316 317 319 320 320 321 323 323 325 325 326 327 328 328 327 326 327 327 328 329 327 327 324 323 322 321 320 319 319 319 318 317 316 315 314 314
302 302 302 302 301 301 302 302 301 301 301 301 301 300 301 301 301 301 300 301 304 307 307 307 306 306 306 306 306 306 307 308 309 309 309 309 310 309 308 308 309 311 312 313 313 314 314 314 313 313 313 314 315 315 317 317 318 318 317 317 318 319 319 320 320 319 320 320 319 319 319 318 318 317 317 317 317 317 317 317 317 316 315 314 314 313 312
301 302 303 303 302 302 301 301 301 301 301 302 302 302 302 301 301 300 300 300 302 304 305 305 305 305 305 305 306 306 307 308 308 308 308 308 307 306 305 304 308 309 310 310 311 311 311 311 312 312 312 313 313 314 314 314 314 313 313 312 313 313 312 312 312 312 314 314 315 314 314 314 313 313 312 312 312 312 312 313 313 314 314 313 312 312 311
303 303 303 303 302 302 302 302 302 301 301 302 302 302 302 302 301 300 301 301 302 302 302 304 305 304 305 305 306 306 306 307 307 307 307 306 305 305 304 305 308 308 311 310 310 309 308 308 309 311 312 312 312 312 312 312 312 311 311 311 310 310 309 309 309 309 310 310 310 310 311 311 311 310 311 310 310 310 309 309 309 309 310 310 311 311 311
304 302 302 302 302 302 302 302 301 301 301 301 302 302 302 302 302 301 301 301 301 301 301 302 303 304 304 303 304 304 305 306 306 306 306 306 307 307 306 306 307 308 310 309 307 306 306 306 307 308 310 309 309 311 310 309 309 309 310 310 310 309 308 307 307 307 307 306 306 306 306 305 305 305 305 305 305 305 306 305 305 306 306 306 306 306 306
306 304 302 301 302 302 303 302 302 301 300 301 302 302 302 302 302 302 301 300 301 301 301 301 301 301 302 302 302 302 303 304 305 306 305 304 305 307 308 307 308 308 309 308 307 306 306 306 306 306 309 309 308 308 307 306 306 306 307 306 306 305 305 304 304 305 305 305 304 304 304 305 304 304 304 303 303 303 303 303 303 303 303 303 303 304 304
305 306 306 304 303 303 302 302 302 301 301 302 302 302 302 301 301 302 302 302 301 301 302 301 301 301 301 301 301 302 302 303 304 305 303 302 301 302 307 308 307 307 307 307 306 306 305 305 306 308 307 307 307 306 304 303 303 303 303 303 303 303 302 302 302 302 303 303 304 303 303 303 303 303 303 303 303 302 302 302 302 303 303 302 302 302 302
303 306 307 305 304 302 302 302 303 303 302 301 301 301 302 302 302 302 302 301 301 301 301 301 301 301 302 302 303 302 302 303 304 305 306 305 303 304 307 307 307 307 307 307 306 305 305 307 306 306 306 306 307 304 303 304 303 302 301 301 301 302 300 301 301 301 301 301 301 301 301 301 301 301 301 302 302 302 301 302 301 301 301 301 301 301 301
301 302 305 305 305 306 306 304 303 303 303 301 299 299 301 302 302 302 302 302 301 301 301 302 302 302 303 302 302 302 300 300 301 303 304 305 306 306 307 307 307 307 306 305 304 304 305 304 305 305 305 306 305 303 302 302 302 302 301 301 301 301 301 300 301 301 301 301 301 301 301 301 299 299 299 299 299 299 299 299 299 299 300 300 300 300 300
301 301 303 305 304 305 305 304 303 301 301 301 301 301 301 302 302 302 302 302 302 302 301 301 302 303 303 302 303 303 303 301 298 300 303 303 304 305 305 305 305 306 305 306 305 305 304 304 304 304 304 305 302 302 302 302 301 301 301 301 301 300 300 301 300 301 301 301 301 300 300 299 300 299 299 298 298 298 298 298 298 298 298 298 297 297 297
301 301 302 304 303 303 301 303 303 303 301 302 302 302 303 302 302 302 301 301 301 301 301 301 301 301 303 304 303 303 303 303 302 300 303 303 303 304 304 305 306 305 304 304 303 303 304 302 302 303 303 303 301 300 300 301 301 301 301 300 300 300 301 301 301 301 300 300 301 301 301 300 300 299 299 299 299 298 299 298 298 298 298 298 297 297 297
301 300 301 302 303 302 304 304 303 302 304 304 303 304 304 302 299 299 301 301 301 301 300 301 301 301 302 302 303 304 304 304 304 304 304 304 303 303 303 303 304 304 304 303 303 301 302 302 302 302 302 300 300 300 300 300 299 300 300 300 300 299 300 300 299 300 300 301 300 300 300 300 300 300 300 300 299 300 299 300 300 299 298 299 299 298 298
300 300 300 302 302 304 305 305 304 304 303 302 303 303 303 302 300 301 301 300 301 301 300 301 301 301 301 301 301 302 303 303 304 304 303 303 304 304 303 303 302 302 301 300 300 299 299 299 299 299 299 299 299 299 299 299 298 298 298 298 298 298 298 299 299 298 299 299 299 299 299 299 299 299 299 299 299 299 299 299 299 299 299 300 300 300 300
301 301 301 302 302 303 304 304 304 304 303 303 303 301 300 300 300 300 300 301 301 300 300 299 299 301 301 301 301 301 302 302 302 302 303 302 302 302 302 302 301 301 299 299 299 299 300 300 300 300 299 297 297 297 298 299 298 297 298 298 298 297 298 298 298 297 297 297 297 297 298 297 296 296 297 297 298 298 298 298 298 298 298 297 297 297 297
Wind_Speed
17 21 19 16 14 13 14 14 13 13 10 8 11 14 17 16 14 15 12 5 11 15 14 5 7 11 8 8 10 10 9 7 4 3 4 6 6 8 10 11 13 14 16 15 17 19 19 21 21 21 19 19 18 18 18 19 19 21 20 20 20 20 19 19 18 18 17 17 16 16 16 15 16 15 15 15 14 14 13 14 13 15 15 14 14 13 13
16 19 21 17 17 16 15 14 14 14 14 13 12 13 12 12 9 9 9 9 11 9 7 9 10 11 11 10 9 8 7 7 6 6 5 6 5 5 7 11 14 16 17 18 18 18 19 21 21 21 18 18 19 20 20 21 20 20 19 20 20 20 20 19 17 17 17 15 15 16 16 16 16 15 15 15 15 15 14 14 13 13 13 13 14 14 13
14 15 17 17 18 18 19 17 17 16 14 14 14 12 13 12 13 12 17 14 14 8 7 9 10 10 10 10 9 8 8 8 10 10 9 9 8 8 7 5 10 14 16 18 18 19 20 21 22 20 19 19 20 21 20 21 21 20 21 20 20 20 19 18 17 17 16 16 15 16 16 16 15 15 15 14 13 14 14 13 13 12 12 14 14 13 14
12 13 14 17 16 17 19 19 19 18 16 15 13 12 12 14 13 12 13 14 16 15 8 9 8 9 9 9 9 9 8 10 11 11 11 11 11 11 10 8 9 9 14 17 18 20 22 23 23 21 19 19 20 21 20 21 21 21 20 20 21 19 18 16 17 18 17 17 16 16 16 16 16 15 14 14 14 14 14 14 13 12 13 14 13 13 12
12 11 13 14 14 13 17 19 18 17 17 14 12 10 6 8 8 12 13 15 5 7 9 8 7 8 9 8 8 8 10 11 11 12 13 13 14 14 13 12 10 12 14 15 19 21 22 22 22 23 22 21 20 21 21 21 19 20 21 21 19 18 17 17 17 16 16 17 17 16 16 16 15 14 15 15 15 14 15 14 12 13 13 13 13 13 13
10 11 11 11 12 18 17 8 13 18 19 17 16 10 11 8 7 7 6 6 6 7 9 9 9 8 8 9 8 6 7 10 12 13 14 15 15 15 15 14 14 13 12 14 16 20 20 22 24 24 22 22 21 21 19 18 20 19 19 18 18 19 18 17 17 17 17 17 16 16 15 15 15 15 16 16 16 14 13 13 13 13 14 14 13 13 13
10 9 10 10 15 15 10 4 8 13 16 17 15 8 6 3 3 4 6 4 7 7 10 9 10 10 12 12 11 7 7 9 10 13 14 15 16 17 16 16 15 14 14 15 17 18 21 21 21 20 19 18 16 17 18 20 20 18 19 18 17 18 18 17 17 17 17 17 16 15 15 15 15 15 16 15 15 14 13 14 14 13 14 14 13 13 14
9 9 9 9 12 9 6 4 2 4 3 10 13 7 5 1 1 2 5 4 6 8 9 10 9 11 12 12 9 4 8 11 11 14 14 16 17 18 16 18 18 16 16 15 17 18 18 19 19 20 20 20 20 20 20 19 19 19 18 17 17 17 17 17 18 18 18 17 16 15 16 16 16 16 15 15 15 14 13 12 12 12 13 13 14 14 14
11 10 10 14 10 7 10 6 2 3 7 10 9 8 7 2 1 2 4 5 5 8 8 10 10 10 11 10 9 10 14 17 16 16 17 17 18 18 19 18 19 16 14 15 16 14 15 17 19 20 19 20 20 19 19 18 19 19 18 18 18 18 18 18 18 18 18 18 17 16 17 17 17 16 15 15 14 12 13 13 13 13 13 13 13 14 15
11 10 9 10 12 13 6 3 4 3 5 3 1 1 5 3 1 2 2 3 5 8 9 11 13 11 9 11 9 13 19 20 19 21 19 18 18 18 19 18 17 15 13 13 13 14 17 19 20 18 19 19 19 19 19 19 19 19 19 19 18 18 18 18 17 18 17 17 17 17 16 17 17 16 15 14 14 13 14 14 14 14 13 12 13 14 15
9 11 9 9 9 7 6 3 4 6 5 5 2 3 5 4 1 2 2 4 5 7 9 12 12 6 12 6 7 15 20 22 21 21 20 19 18 18 17 16 16 13 10 11 13 14 16 19 18 18 20 21 19 18 18 19 19 19 19 19 18 18 18 17 17 16 16 17 16 16 16 16 15 15 15 15 13 13 14 14 13 12 12 12 13 13 14
11 10 9 11 8 3 1 8 6 7 6 4 4 8 6 1 2 2 4 5 7 7 7 9 8 10 4 8 11 17 20 20 20 19 19 17 16 17 15 13 13 12 8 9 12 15 18 18 18 19 20 19 18 17 19 18 19 19 19 19 18 17 16 16 16 15 15 16 16 16 16 15 14 14 13 13 14 14 13 12 12 13 13 12 14 12 13
13 13 9 9 11 3 10 10 11 8 6 5 10 9 6 2 5 5 5 7 7 7 7 8 6 7 6 8 12 15 17 19 20 19 18 16 15 16 14 11 12 8 7 10 13 15 15 16 18 19 18 18 18 17 17 17 19 19 18 16 15 15 15 16 16 16 15 16 17 16 15 14 14 14 13 14 13 13 14 12 12 13 14 13 13 13 13
12 11 10 10 8 2 9 10 8 7 5 9 5 5 4 3 5 7 6 7 8 7 8 6 6 7 10 11 12 14 16 16 17 17 17 16 16 15 12 9 8 7 8 10 13 14 15 17 18 18 17 17 16 17 17 19 19 16 14 15 15 15 15 16 16 16 16 15 15 14 14 13 14 14 13 13 13 13 12 12 13 13 12 12 12 12 12
7 8 9 8 10 4 14 14 3 8 2 5 4 6 3 5 6 6 7 8 9 9 7 8 9 10 12 13 14 15 16 16 17 17 17 15 15 16 13 8 7 7 5 9 12 13 14 17 16 17 19 18 17 17 18 17 15 14 14 14 15 15 15 15 15 15 15 16 14 12 13 14 14 14 13 13 12 12 12 12 12 13 13 12 11 11 10
8 9 9 4 5 7 10 9 4 5 6 5 7 9 2 3 5 7 5 7 8 10 10 11 11 11 13 14 14 16 16 17 17 19 18 17 15 14 14 12 7 6 3 6 10 10 13 13 13 14 16 15 15 16 17 13 13 13 14 14 15 15 15 15 15 14 14 15 14 13 14 13 13 13 13 12 12 11 11 12 11 12 11 11 11 11 11
5 1 2 7 9 8 6 3 2 3 3 4 8 8 7 4 4 6 5 7 8 9 10 11 11 11 13 14 14 16 18 18 18 19 18 16 15 15 15 15 12 2 3 3 2 8 10 11 10 11 12 13 14 15 13 12 13 13 14 14 14 14 14 14 14 13 13 13 13 13 13 14 13 13 14 13 12 12 12 12 12 11 11 11 12 11 11
7 6 5 8 8 8 5 3 1 4 4 6 7 9 9 7 6 6 6 7 8 9 9 9 10 10 12 14 14 16 17 17 17 17 18 18 18 17 17 17 19 7 4 4 5 7 6 9 8 8 9 10 12 11 10 11 12 11 12 13 13 13 13 14 14 14 13 13 13 13 13 12 13 12 13 13 12 12 12 12 12 12 11 11 11 11 11
4 3 1 7 12 11 4 3 1 2 6 8 8 9 10 10 9 8 8 8 8 9 9 8 10 12 13 14 15 15 15 17 17 18 17 17 16 16 15 17 17 14 4 6 6 7 8 7 7 7 7 8 9 9 9 11 11 10 11 11 11 11 12 12 12 12 13 11 11 12 13 12 12 12 12 12 13 12 13 12 12 12 12 11 11 11 11
4 3 5 10 14 8 2 4 3 7 9 10 10 9 10 11 11 10 9 9 8 8 9 10 11 13 13 14 15 15 15 16 15 16 17 18 17 16 15 15 16 14 12 9 8 9 10 7 5 6 7 7 7 7 8 9 10 9 9 10 11 11 12 11 10 12 11 12 12 11 12 13 12 12 12 13 13 13 13 12 12 12 12 12 12 11 11
5 3 4 13 14 3 8 0 7 8 10 11 13 12 12 12 12 11 10 9 9 8 10 10 10 11 12 12 14 16 14 15 16 16 17 15 13 13 14 15 15 14 12 12 12 13 12 10 10 11 11 7 6 6 6 7 7 8 8 10 9 10 10 10 10 10 11 11 11 10 10 11 11 8 8 12 13 12 11 11 12 12 12 11 11 11 11
5 7 9 13 8 5 9 13 13 12 12 12 13 12 12 11 12 11 12 10 8 8 8 9 10 11 11 12 13 15 14 15 17 17 16 15 16 15 15 13 15 15 16 13 13 13 12 11 11 11 11 11 10 7 3 6 6 7 8 8 9 9 9 9 9 9 10 10 11 11 10 10 11 4 8 9 6 2 7 1 4 10 6 7 7 9 11
7 10 12 10 9 11 11 13 15 14 13 12 13 12 12 13 11 11 12 12 10 8 8 7 9 10 10 12 13 14 14 14 14 15 16 15 16 16 15 15 17 16 16 15 14 15 14 13 13 13 13 12 10 9 8 4 6 8 8 8 8 7 6 5 1 5 9 8 9 9 9 9 9 9 6 3 9 10 7 4 6 8 7 8 9 9 4
7 10 12 11 10 12 13 13 14 13 11 11 12 11 11 12 12 12 12 11 11 10 9 8 7 9 10 10 11 13 15 15 15 17 16 15 14 14 11 11 15 16 16 15 15 15 13 13 13 13 13 13 12 10 8 7 6 6 8 8 7 8 7 6 4 1 4 6 7 7 8 7 7 6 7 8 4 7 8 7 9 8 7 7 8 7 8
9 11 11 12 13 12 10 10 12 11 11 11 12 12 12 12 13 12 12 11 11 10 9 8 8 7 9 10 10 11 13 13 13 14 16 15 16 16 16 15 14 13 12 12 12 13 13 13 14 13 14 13 13 10 9 8 7 5 4 5 7 6 5 6 7 6 6 6 6 7 8 7 6 5 7 8 8 7 3 8 8 6 5 7 5 5 6
10 12 12 13 10 9 10 11 10 11 14 13 13 12 11 12 13 12 13 12 11 10 9 8 8 8 8 9 9 11 13 13 14 12 12 14 15 15 17 18 15 12 13 13 13 14 14 14 14 14 14 14 13 10 9 9 7 7 5 5 5 4 3 4 4 5 6 6 6 5 4 4 5 6 7 7 7 6 6 6 3 3 6 8 6 3 3
10 10 14 12 10 12 11 13 11 14 14 13 12 13 12 11 13 11 10 9 10 9 9 8 7 8 8 7 9 10 12 12 12 11 12 14 16 16 14 14 14 15 16 14 13 14 15 13 13 13 14 14 13 11 9 8 7 6 5 3 5 7 10 7 3 6 6 5 4 3 4 4 4 5 5 5 5 5 5 5 6 7 7 4 7 10 4
11 10 10 11 13 15 17 16 14 12 12 11 11 12 11 10 11 11 10 9 8 7 7 6 5 5 7 7 8 9 11 12 12 14 13 14 14 14 14 15 13 13 12 13 12 13 13 12 12 13 14 13 13 12 10 8 7 6 5 3 3 3 4 2 3 3 2 1 1 2 3 4 4 4 4 5 6 6 5 5 5 5 6 4 5 7 11
13 12 11 10 11 12 12 11 12 13 13 12 11 10 10 10 9 9 7 6 6 6 5 5 4 3 3 5 5 7 9 11 12 14 13 12 13 13 14 15 13 12 12 13 13 13 13 13 13 13 13 13 12 12 11 10 7 7 5 3 4 3 2 1 3 2 2 2 2 1 1 2 3 3 4 5 5 5 5 6 5 5 4 5 5 5 5
13 12 12 12 13 14 15 14 13 14 13 13 13 11 10 9 8 5 3 4 5 6 5 5 3 2 2 4 4 6 8 11 11 12 13 13 12 11 12 13 13 11 12 14 15 15 14 14 13 13 13 13 13 13 11 10 8 7 6 6 7 7 7 8 5 1 0 3 4 3 4 5 3 3 4 5 5 6 6 6 5 5 3 3 4 5 5
14 13 13 14 15 15 15 14 14 14 14 14 13 12 13 12 7 4 1 1 3 5 5 5 3 2 3 4 4 4 6 8 10 11 11 12 12 11 12 12 13 13 13 13 13 13 12 12 12 12 12 13 13 13 12 11 9 7 5 4 3 8 2 4 5 4 4 4 4 6 5 5 4 4 4 4 4 4 4 3 2 4 3 4 4 3 4
15 15 15 14 15 16 16 15 15 16 16 15 15 15 13 12 10 7 6 2 1 3 5 5 5 5 4 2 1 4 6 8 9 9 9 9 9 10 10 9 11 13 12 11 12 12 12 12 12 12 11 12 12 12 11 10 9 7 6 5 4 1 5 6 4 1 2 2 2 3 3 3 3 3 3 3 4 5 5 5 5 4 3 3 3 4 3
15 15 15 16 15 16 17 16 16 16 16 16 14 12 12 12 11 9 6 5 2 2 4 5 5 4 4 4 1 2 4 6 7 7 7 7 8 9 9 8 7 9 10 11 12 11 12 13 12 12 13 12 12 11 11 11 9 8 7 6 5 3 3 1 3 4 2 2 2 2 2 2 2 1 0 2 2 1 3 3 4 4 3 4 4 4 3
14 12 13 14 13 13 15 16 14 14 14 13 13 13 13 13 13 12 9 4 2 2 2 3 4 4 4 4 4 3 3 4 5 5 6 7 7 7 8 8 7 7 8 9 11 11 11 12 13 12 13 12 11 10 11 12 10 9 8 8 7 6 5 2 2 3 1 1 3 4 2 2 0 3 2 1 2 2 2 2 4 5 5 5 5 5 6
14 13 13 13 13 14 13 12 13 14 15 15 15 14 13 13 13 13 14 9 5 3 2 1 2 3 3 3 3 3 3 3 4 4 4 6 7 7 7 7 7 7 7 8 11 10 11 11 13 14 14 11 11 10 10 11 10 9 9 8 8 6 5 4 4 2 3 2 1 0 2 1 3 5 6 3 0 1 2 3 4 5 6 7 7 6 7
14 14 13 12 13 14 14 14 13 14 14 13 14 14 14 14 15 14 14 12 7 3 2 2 2 2 2 2 2 0 1 2 3 4 4 6 7 6 7 8 9 9 8 7 10 11 12 11 16 19 12 10 10 11 12 12 10 8 8 8 7 7 5 4 4 3 3 3 1 3 6 8 8 5 3 2 3 2 3 4 5 6 7 8 8 8 8
15 15 13 13 13 14 14 13 13 13 12 13 15 16 17 16 15 14 14 13 11 10 6 3 5 5 7 7 8 8 7 7 6 6 7 7 7 8 9 10 10 9 8 9 10 10 9 11 17 17 11 9 10 11 12 17 10 8 7 7 7 7 7 5 5 5 2 2 3 4 5 5 5 5 5 4 4 4 4 5 6 7 8 9 9 8 8
14 14 15 13 12 13 13 13 13 13 14 15 15 16 16 15 15 13 13 13 12 11 12 12 11 10 9 9 10 10 9 8 8 8 8 8 7 7 8 9 9 8 9 9 8 9 9 13 16 11 9 9 10 9 12 17 16 9 7 7 8 8 8 7 6 6 6 4 4 4 4 4 5 6 6 7 7 7 7 7 8 8 8 8 9 10 10
13 13 13 13 13 13 13 13 13 13 14 15 15 14 15 15 15 16 15 15 14 12 12 11 11 12 11 11 11 11 11 10 10 9 9 9 8 10 10 9 7 8 7 8 9 9 10 12 10 9 9 9 10 9 11 15 15 8 8 7 7 7 7 6 6 6 6 7 6 4 4 4 5 6 7 7 8 8 8 9 9 9 8 8 9 9 9
11 12 14 14 14 13 13 13 14 14 13 13 14 15 15 15 14 15 15 15 14 14 12 12 12 12 12 13 12 12 12 11 11 10 10 9 9 8 9 11 11 10 10 12 9 8 13 18 13 9 8 8 9 8 9 12 11 9 8 8 7 7 7 7 7 6 6 6 7 8 7 7 7 7 7 8 8 8 8 8 9 9 9 9 10 10 11
10 11 12 13 14 14 14 14 14 14 13 13 13 14 14 15 15 15 16 15 11 12 13 13 13 13 13 13 12 12 12 12 13 12 11 10 11 11 10 11 11 11 12 10 9 9 12 12 10 9 8 8 8 10 8 12 10 8 8 8 8 8 7 8 8 8 7 7 7 7 8 7 8 8 8 8 8 8 8 8 8 9 9 10 10 9 10
9 10 11 12 13 13 14 13 13 13 14 14 14 14 14 15 15 15 14 12 11 13 14 14 16 14 13 13 12 12 13 13 13 14 15 14 12 10 11 10 9 10 14 13 12 11 10 10 10 10 9 8 9 15 14 9 9 9 9 10 9 9 9 9 9 9 9 8 8 8 8 8 8 9 9 9 9 9 9 9 9 9 9 9 9 9 9
8 9 9 9 11 12 13 13 13 13 14 14 14 13 13 13 14 14 13 13 12 12 14 14 15 16 14 13 13 13 12 12 13 13 14 15 14 13 11 8 8 10 16 12 12 10 10 9 9 9 13 11 10 15 15 10 10 10 10 10 10 10 11 11 11 11 10 9 9 9 9 9 9 9 9 9 9 9 8 8 8 9 10 9 10 10 10
7 7 8 8 9 10 11 12 13 13 13 13 13 13 13 12 12 13 13 14 13 13 13 13 14 14 14 14 13 12 11 11 10 10 11 11 13 13 12 10 10 13 17 11 12 12 12 12 11 14 18 18 17 16 11 9 10 10 10 10 10 9 10 10 10 11 11 11 11 10 10 10 10 10 10 11 10 10 10 10 10 11 11 12 12 11 11
6 6 6 8 9 9 10 11 12 13 12 11 12 13 13 13 12 12 12 13 13 13 14 13 13 12 11 11 12 12 11 12 12 11 11 11 12 12 11 13 13 12 13 16 14 13 13 14 17 21 19 21 20 18 12 11 11 11 11 11 11 11 12 11 11 11 13 12 10 9 10 10 10 11 11 11 11 11 11 11 12 11 11 11 11 12 12
7 5 4 4 7 8 8 9 9 10 11 11 12 13 13 12 12 12 12 13 13 12 12 13 13 13 12 11 10 11 11 12 13 14 13 12 11 11 12 14 13 14 19 19 13 13 14 23 24 23 23 22 20 15 14 14 12 12 12 13 13 14 13 13 13 11 12 12 12 11 10 10 11 10 10 10 10 11 12 12 12 12 12 12 12 12 12
7 5 5 4 4 5 5 6 7 9 11 11 11 12 12 13 12 11 11 11 12 12 11 11 13 13 13 13 12 10 10 11 11 11 12 12 12 14 15 18 19 22 18 15 15 15 15 17 20 24 24 24 22 14 13 12 12 12 13 13 14 14 14 14 15 14 13 12 13 13 14 13 11 10 11 12 11 11 11 12 12 12 11 11 11 12 12
7 7 5 4 4 1 3 5 6 7 9 10 10 9 10 11 11 11 10 10 10 11 12 11 11 12 12 13 12 12 10 9 12 12 10 11 12 13 13 13 15 20 22 21 22 22 27 26 25 25 24 22 15 13 13 12 13 14 14 13 13 13 12 12 11 11 12 13 13 12 11 11 11 11 11 11 13 13 12 13 12 12 12 11 11 11 12
5 5 5 4 4 9 6 4 5 6 7 8 9 9 10 10 10 10 10 9 9 9 10 11 11 11 11 11 11 11 12 13 13 12 10 11 12 12 13 15 19 18 15 14 16 15 22 24 23 23 23 19 12 13 12 13 13 12 12 12 11 11 11 11 11 12 13 15 14 13 11 12 11 10 11 12 12 13 14 14 13 12 10 11 12 12 12
6 6 6 5 5 5 5 4 4 6 6 7 8 8 8 9 9 9 9 9 8 8 8 9 9 9 9 9 9 9 10 11 12 12 11 12 13 13 14 14 15 20 19 13 14 14 18 23 21 20 16 14 14 13 11 12 13 13 12 12 12 12 13 13 14 15 12 11 11 12 11 11 12 13 13 11 12 12 11 12 11 14 18 12 10 10 10
5 6 6 5 5 5 5 5 5 5 6 7 7 6 6 7 8 9 9 9 8 8 8 9 9 9 9 9 9 10 10 11 12 12 11 12 12 14 15 13 15 15 15 15 13 12 11 12 12 13 13 13 13 13 13 13 12 13 13 12 13 12 12 12 11 12 12 12 11 10 10 10 10 11 10 11 11 11 11 12 11 11 10 9 9 8 8
3 4 4 5 5 5 5 5 5 5 5 5 6 7 8 7 7 7 8 9 8 8 8 9 10 9 9 9 10 10 9 10 9 10 10 10 10 10 12 15 13 13 14 13 11 10 10 11 13 16 15 11 11 12 14 17 13 12 12 12 11 12 12 12 11 11 11 11 10 10 11 11 10 10 10 10 10 10 10 10 9 9 9 8 9 9 9
Wind_Direction
267 279 279 281 289 286 282 284 283 270 262 251 236 233 239 228 229 233 218 264 253 239 248 267 15 360 342 340 346 340 330 308 323 319 294 275 248 221 212 201 197 200 198 195 191 190 190 192 194 194 194 194 194 193 192 190 189 189 186 187 188 188 188 190 190 189 188 188 189 188 191 191 197 200 200 200 199 199 198 201 204 206 206 205 199 201 202
272 274 276 269 264 267 265 258 263 267 261 251 244 240 236 233 234 245 283 284 289 264 289 345 327 337 334 339 335 320 332 348 350 322 296 275 267 247 222 208 204 198 200 196 194 193 192 192 193 194 193 193 193 192 190 189 190 189 184 187 187 188 189 190 187 183 183 184 185 187 189 190 193 195 197 197 198 199 199 202 204 207 207 206 205 202 202
272 273 274 269 256 253 258 257 255 258 257 252 244 241 233 236 240 236 241 261 269 236 17 327 323 315 327 319 325 330 354 349 346 336 324 318 318 322 318 290 219 212 207 203 198 194 193 195 195 194 192 192 193 194 190 189 189 187 185 185 187 188 189 187 181 179 180 182 181 185 187 188 188 191 194 194 197 198 200 202 205 201 206 206 209 207 204
271 267 269 263 258 255 254 256 252 248 245 242 233 229 223 221 219 215 218 232 241 257 342 322 309 290 294 306 322 322 334 347 345 338 330 328 324 321 320 315 304 262 224 213 205 199 197 196 196 195 193 192 191 193 190 190 188 187 186 186 187 187 185 180 178 177 179 179 181 183 183 185 186 188 191 193 195 196 199 200 201 203 205 207 209 211 209
266 269 267 272 258 256 252 244 243 239 240 248 247 232 220 233 254 221 211 218 248 344 334 325 329 301 283 297 314 326 335 344 339 333 328 325 321 318 313 304 281 265 260 233 210 204 201 199 196 196 193 190 191 191 188 189 186 186 187 186 184 183 180 177 178 177 176 179 182 182 184 184 184 184 188 193 194 195 198 199 198 202 205 206 208 212 214
271 282 284 276 245 235 238 246 236 225 229 224 231 213 209 198 211 248 304 324 359 324 338 328 327 323 309 305 308 322 350 339 336 332 328 323 319 312 307 302 297 291 272 258 230 210 202 198 198 196 192 192 191 189 184 182 186 187 185 184 181 181 178 177 176 176 178 180 182 183 182 181 183 186 190 194 196 197 198 198 201 204 206 207 208 209 214
257 269 276 265 239 236 243 259 253 242 226 216 222 165 180 163 250 266 269 297 349 332 310 312 304 303 294 288 278 306 346 351 338 330 324 321 316 311 306 301 297 291 279 258 244 221 209 202 197 192 191 193 185 183 180 183 184 183 183 183 181 180 178 178 176 177 180 182 182 182 182 184 187 191 193 194 197 199 201 201 201 204 206 207 209 210 211
255 259 246 252 243 250 209 213 255 359 254 194 135 122 149 195 289 305 279 304 324 320 313 310 307 293 289 286 269 21 1 0 341 332 327 320 312 307 306 303 295 284 273 259 239 226 211 203 192 190 190 187 184 185 182 181 182 182 181 183 180 180 179 179 180 181 181 183 183 183 185 187 191 195 195 196 197 199 204 205 205 204 207 212 211 212 213
239 234 238 238 278 260 234 187 180 202 185 162 186 208 165 231 282 324 275 281 302 324 328 316 312 300 285 262 224 53 4 355 344 335 324 315 307 304 301 298 295 288 267 252 242 224 210 202 193 191 187 185 184 183 182 181 181 181 180 181 182 182 182 182 183 183 184 184 184 186 188 190 195 195 195 196 197 196 202 207 206 207 209 211 213 214 214
224 240 239 241 240 249 208 44 130 7 354 325 22 294 142 216 171 282 280 335 341 336 335 342 332 297 249 239 208 16 355 346 337 329 321 311 304 302 304 302 296 281 260 245 230 216 200 197 192 187 184 182 179 181 182 180 180 180 181 183 183 182 183 183 183 184 186 186 186 187 189 194 195 196 196 196 197 196 202 205 209 210 209 212 212 214 214
216 225 239 240 249 237 84 140 356 3 345 329 291 241 207 111 310 5 329 31 23 0 346 349 342 277 225 222 16 355 341 335 331 322 313 308 305 304 302 305 302 286 253 231 222 205 197 192 185 180 179 177 175 178 180 180 181 182 184 183 182 182 183 183 181 182 184 185 186 188 192 194 194 195 196 197 198 197 203 206 211 211 211 212 214 214 216
225 224 222 238 234 260 40 342 342 338 322 310 223 222 194 137 44 30 42 46 38 22 7 357 27 22 2 357 336 330 326 325 317 315 311 311 310 307 309 309 309 291 245 213 210 195 194 189 178 176 174 173 173 174 179 180 182 185 186 185 186 182 180 178 179 180 181 183 186 190 190 192 195 197 197 199 199 198 202 205 206 211 210 213 216 216 216
214 219 237 254 256 290 11 348 335 334 307 233 206 215 75 72 63 46 56 53 39 29 29 20 38 34 6 321 311 316 323 323 321 320 318 316 313 312 317 331 316 289 209 205 201 200 186 178 173 173 172 172 172 173 178 182 187 189 186 181 179 177 178 179 179 181 182 184 186 189 190 191 195 197 199 202 201 200 204 206 208 210 212 215 217 220 221
218 216 233 246 267 48 338 344 345 4 260 197 190 63 264 17 47 42 38 44 37 29 35 29 25 347 339 327 325 323 325 322 310 315 320 330 333 326 324 323 320 304 234 211 207 195 179 176 174 175 173 172 171 171 180 187 188 184 176 176 176 175 177 179 179 181 184 184 185 186 189 189 193 198 201 203 203 203 207 208 210 210 212 217 220 221 221
223 212 233 242 253 43 359 338 273 25 308 47 334 299 50 15 26 19 26 19 15 8 4 4 349 345 338 333 336 332 325 326 324 323 325 330 340 336 333 342 353 326 257 207 206 190 177 180 174 172 172 170 171 173 183 185 178 176 174 173 174 174 175 178 181 182 183 181 181 186 188 190 194 196 198 203 204 204 206 210 207 209 210 213 217 223 222
216 204 218 247 9 333 353 5 36 39 63 10 346 339 351 63 30 6 1 14 4 0 353 342 340 338 338 333 339 337 329 327 330 334 334 334 346 350 349 353 2 340 322 212 203 177 177 176 173 174 171 167 170 176 179 171 175 172 171 172 172 172 173 177 178 180 181 181 183 188 187 188 192 194 197 199 201 201 201 205 207 206 210 209 214 218 219
243 229 347 339 315 325 343 18 61 90 22 22 355 339 327 322 2 352 350 354 353 350 349 337 334 335 338 334 338 339 335 334 336 335 329 324 341 350 359 5 355 348 34 21 115 165 176 170 171 173 170 171 169 171 165 167 171 170 170 170 170 172 172 175 177 179 180 183 185 189 187 188 190 194 196 196 198 201 200 204 208 209 208 208 212 215 221
298 291 261 308 315 322 331 132 59 38 0 342 350 337 327 328 333 334 328 322 326 334 338 340 334 332 332 337 339 337 340 336 332 331 332 336 346 353 359 1 0 354 115 98 108 93 122 148 162 172 176 177 168 163 158 165 166 165 169 169 171 172 171 174 177 179 180 185 186 188 189 190 192 194 196 196 200 198 201 204 206 208 209 210 213 215 218
289 204 84 331 334 326 298 162 135 348 352 336 339 330 326 318 315 317 313 308 312 311 321 335 331 330 341 342 344 339 340 338 333 335 335 334 339 350 355 359 4 14 35 107 96 109 122 144 139 149 164 164 154 154 158 164 167 167 173 171 171 172 175 177 179 185 185 187 186 188 193 195 195 197 199 200 200 200 202 206 205 206 209 212 216 217 215
316 344 347 338 329 307 159 108 16 354 339 333 326 319 311 311 308 304 307 304 297 311 321 334 331 330 339 346 345 340 343 339 335 337 340 336 343 342 359 11 9 13 33 56 78 90 79 74 89 122 120 131 149 145 150 166 172 171 173 174 176 179 180 181 182 186 190 186 189 193 193 199 201 199 200 205 203 202 204 205 206 204 208 211 212 210 216
322 321 352 345 327 191 167 286 337 340 331 324 320 320 318 314 313 309 308 304 301 310 318 321 327 329 339 345 340 336 340 342 341 341 338 330 343 340 0 14 21 26 24 44 58 67 68 66 63 63 63 83 117 115 134 164 163 172 176 175 181 182 185 187 186 185 191 190 197 200 193 196 209 208 207 205 206 206 208 210 209 205 206 212 210 216 214
11 6 340 343 341 324 311 323 325 326 325 319 314 315 313 316 314 313 307 306 300 301 309 324 326 328 332 337 342 339 342 345 341 339 335 338 358 355 2 6 19 21 25 45 59 68 73 72 76 76 67 62 59 64 124 168 168 169 167 168 179 192 193 197 195 186 200 196 196 202 201 195 195 146 44 51 25 256 206 95 276 247 251 228 226 216 218
333 348 336 329 312 295 293 306 314 316 318 314 313 314 310 311 310 306 304 302 308 312 315 323 324 326 329 331 338 335 341 343 342 339 343 349 1 360 359 5 11 19 22 26 48 57 60 63 63 66 67 61 61 62 45 54 159 160 155 158 166 174 174 186 243 212 201 205 194 198 212 205 204 183 167 102 63 54 47 19 4 352 325 313 328 341 322
331 345 330 329 317 310 309 311 311 311 313 315 310 309 308 307 308 307 302 298 295 298 310 318 319 320 321 329 333 332 336 342 349 349 352 355 358 354 355 8 18 22 24 21 27 44 53 54 51 49 49 43 43 56 63 58 41 129 149 152 159 159 158 152 105 156 204 212 201 189 197 210 206 189 192 197 178 52 52 51 42 34 13 346 338 328 330
338 337 333 326 314 307 312 318 316 312 319 321 314 308 307 302 298 295 290 290 287 286 293 302 312 321 320 322 333 335 331 337 349 355 356 356 4 0 4 10 12 16 22 23 20 28 44 47 41 41 43 38 29 35 60 51 38 59 123 143 147 149 146 142 151 158 188 189 197 197 198 184 182 186 198 206 209 195 98 74 78 69 47 33 16 345 341
343 345 338 326 311 332 339 332 326 331 323 318 313 311 307 302 297 293 289 283 279 275 278 285 299 312 318 319 330 334 333 337 343 348 360 5 7 7 3 2 1 11 24 29 29 23 27 41 43 36 35 33 36 38 49 43 36 31 42 89 108 95 120 159 141 159 185 189 185 182 179 182 191 190 201 209 209 210 180 176 165 85 85 72 52 42 90
355 351 343 336 341 342 345 345 330 326 322 320 315 310 305 296 293 285 279 275 269 267 265 270 281 295 305 312 323 334 332 333 339 351 7 12 10 8 2 357 3 13 16 20 24 25 27 29 37 38 35 30 31 35 45 46 50 58 58 86 102 66 40 8 183 186 197 183 180 172 177 183 184 196 195 194 209 203 205 200 201 200 204 152 75 49 46
354 359 357 352 341 337 334 333 332 326 324 324 319 313 305 292 283 277 270 258 250 251 255 255 265 288 307 315 328 336 336 342 350 349 358 8 6 4 360 357 3 24 21 21 22 21 25 29 31 34 32 24 21 17 31 49 57 65 69 103 121 121 125 157 213 200 192 179 137 184 202 214 216 218 209 203 203 212 215 210 211 197 216 147 110 91 85
357 355 354 350 342 335 333 335 338 341 340 339 332 324 310 299 295 294 286 271 260 252 249 255 251 255 282 301 324 339 339 337 346 344 347 350 353 357 357 358 6 22 23 22 21 23 25 26 25 25 22 14 11 14 15 15 37 51 37 51 79 84 98 166 216 206 140 92 155 26 165 200 201 227 230 234 229 227 220 219 214 227 136 119 148 133 123
354 353 352 352 348 348 351 353 351 349 347 342 339 336 326 306 283 271 286 278 259 252 253 258 250 264 262 275 305 337 335 329 338 338 339 341 345 350 356 355 0 14 21 21 20 20 22 23 22 21 13 7 7 1 7 9 18 23 48 25 31 17 18 358 321 152 334 187 88 68 205 198 178 211 210 222 224 225 224 215 217 196 158 150 159 210 192
353 355 355 355 354 357 1 357 354 355 353 348 345 346 345 336 322 309 311 262 255 253 251 239 220 204 259 278 303 327 324 324 330 330 330 333 340 354 357 358 4 6 9 9 9 15 17 18 19 17 6 1 5 0 1 4 3 358 32 28 98 116 54 306 320 322 175 201 165 207 184 216 193 200 216 215 207 221 222 193 151 204 186 157 197 162 97
351 355 358 1 359 358 360 2 0 360 358 353 353 354 347 339 346 341 334 346 310 266 246 239 224 194 187 207 322 337 327 322 320 321 324 328 336 349 359 1 2 360 357 1 2 7 10 12 13 6 358 357 358 2 2 3 358 360 11 358 334 185 72 332 259 162 260 161 181 181 170 205 205 211 202 219 229 212 214 207 199 193 187 184 147 107 116
360 356 360 4 1 4 4 2 0 358 357 357 354 350 350 349 348 351 346 338 315 211 237 237 227 204 168 160 144 303 302 311 306 310 321 339 348 350 349 354 359 355 356 1 0 2 4 5 4 357 353 347 354 359 6 1 357 350 359 350 338 337 308 97 354 280 178 208 144 86 152 171 67 229 301 6 308 302 211 206 197 171 124 107 105 104 97
6 8 359 4 5 4 1 359 357 356 359 2 359 358 358 357 355 352 355 347 346 312 255 242 221 213 187 179 174 207 248 277 305 322 326 333 342 347 349 343 355 356 3 13 7 4 1 357 356 354 349 346 352 357 9 1 353 347 349 346 339 333 322 316 221 271 316 17 82 94 78 66 85 19 48 167 251 243 210 176 145 131 122 109 104 96 93
9 9 9 8 9 10 13 8 1 358 359 359 2 2 0 359 1 357 356 5 20 6 358 276 232 199 198 201 203 210 219 239 267 303 334 347 356 0 353 0 10 21 16 35 19 7 355 353 355 348 342 343 352 357 12 1 353 343 347 341 332 328 329 315 301 327 324 37 18 107 79 91 84 44 25 16 111 137 143 121 118 117 112 111 114 111 100
10 10 11 14 12 13 15 12 9 8 7 7 9 7 5 3 6 6 1 5 11 32 60 80 125 147 182 209 215 257 24 33 47 48 46 32 16 14 23 25 20 26 15 15 13 1 353 354 352 349 341 347 353 355 8 360 347 348 339 333 333 332 326 319 335 321 340 310 33 62 60 61 64 51 50 62 60 64 93 110 112 116 117 120 120 113 108
15 13 14 14 17 16 16 15 12 11 10 10 12 14 13 9 7 3 9 18 23 22 36 93 111 91 73 65 63 61 58 53 53 48 48 54 55 40 35 32 26 21 12 15 5 351 351 355 353 351 352 353 354 352 4 0 345 347 346 349 349 340 335 334 0 340 348 24 33 58 66 76 77 71 63 64 72 81 93 102 112 117 119 120 115 104 87
18 17 17 17 18 19 23 21 16 15 15 17 17 17 18 15 12 8 12 18 24 33 40 47 58 65 66 65 61 57 53 51 51 51 54 63 65 58 45 38 25 12 16 13 352 350 359 358 355 356 0 356 353 353 1 2 349 344 2 359 358 353 0 358 359 343 353 5 34 53 68 77 87 84 75 69 68 72 80 85 78 78 70 72 76 78 82
19 17 19 20 21 21 24 27 25 22 21 20 19 19 20 24 21 19 20 19 20 34 49 55 60 62 62 64 61 56 53 50 51 53 55 59 67 63 56 44 39 32 20 4 359 3 2 1 5 3 1 354 356 355 5 8 4 8 7 5 7 15 17 13 13 18 21 19 24 34 52 62 77 83 84 82 80 77 76 83 88 87 87 87 88 87 88
20 20 21 20 23 24 25 28 30 29 25 25 25 25 21 24 27 28 25 23 19 25 38 50 55 57 57 60 62 60 57 56 54 56 57 57 56 56 52 42 32 27 24 24 21 7 12 16 14 9 0 358 3 359 15 20 20 24 18 15 18 27 30 26 20 22 27 37 51 52 58 59 64 69 75 79 82 86 93 95 95 96 95 91 88 88 90
22 19 21 23 24 25 29 29 32 32 30 29 31 32 30 29 29 31 29 25 15 23 37 46 52 56 58 60 62 63 61 58 57 55 54 55 52 49 47 44 29 28 27 29 29 28 24 21 17 12 5 10 12 19 21 31 37 39 35 31 30 33 40 40 37 27 28 33 41 48 54 58 61 61 62 65 69 71 74 83 91 98 104 104 102 99 95
23 23 23 24 27 27 29 32 32 34 34 31 30 30 32 33 35 35 33 29 29 35 41 45 51 53 54 56 61 61 62 61 62 60 57 55 51 50 52 48 34 36 40 41 37 36 30 29 21 16 14 19 23 33 37 37 40 45 47 45 42 40 44 46 44 42 37 37 38 43 48 52 56 60 60 63 61 61 63 64 66 67 71 77 86 91 97
21 26 26 22 24 26 29 30 33 34 35 35 33 33 32 34 37 39 38 35 33 34 40 44 47 48 48 50 53 53 52 58 64 66 65 61 56 51 51 47 41 43 45 48 45 42 39 36 37 34 35 36 38 39 39 37 39 42 43 43 46 45 46 47 47 48 48 45 44 45 45 45 47 48 49 47 48 47 46 47 53 56 59 60 60 61 65
7 28 33 26 24 24 26 30 31 34 35 37 36 38 38 37 34 37 41 41 36 34 38 42 45 48 49 49 51 49 42 40 50 61 66 64 59 53 47 46 47 49 51 52 50 50 45 43 45 45 46 48 49 49 48 44 46 44 46 45 42 41 41 42 43 41 42 45 49 50 51 55 54 53 54 56 57 57 56 58 60 62 64 64 64 66 66
19 11 21 28 27 25 26 26 27 30 38 38 39 38 39 40 41 36 38 42 43 42 41 40 42 46 48 50 49 50 47 44 41 48 56 56 56 50 45 51 53 56 56 57 58 55 53 54 52 52 53 54 54 54 56 54 51 52 51 51 49 47 47 46 47 47 47 45 37 36 47 54 60 62 64 63 62 63 64 64 65 65 65 65 64 64 64
12 9 18 20 28 32 29 18 22 26 32 36 42 43 42 42 42 41 40 42 45 45 47 47 48 46 43 48 54 54 53 51 50 49 52 53 58 57 54 56 57 59 59 58 59 57 56 54 57 59 59 57 56 57 57 56 56 55 55 56 56 54 54 54 53 52 54 51 49 45 41 46 53 54 58 62 62 64 62 61 63 63 65 68 70 71 71
8 5 21 22 36 30 23 29 17 23 31 34 35 38 40 41 44 46 46 47 48 50 47 49 52 53 50 46 45 50 57 60 52 46 54 59 63 64 60 60 60 60 60 59 59 57 56 55 56 57 59 61 61 57 54 53 53 55 57 58 60 61 60 60 60 56 52 51 51 53 54 54 50 47 53 59 59 61 62 60 59 58 57 58 59 62 63
8 7 17 10 14 39 31 25 24 31 34 33 34 36 39 44 42 45 50 54 55 56 55 54 53 55 58 58 52 46 40 49 63 50 41 57 60 61 60 61 62 65 67 66 62 56 55 56 57 57 56 57 57 54 51 52 54 56 55 55 57 61 60 57 55 55 57 57 54 52 49 47 48 49 49 53 59 59 60 61 62 59 56 54 58 61 64
23 20 16 11 23 54 45 357 18 27 28 24 24 31 25 36 51 45 44 48 50 54 55 57 58 58 58 59 63 63 63 61 63 64 53 52 55 57 56 56 53 54 59 61 60 59 53 54 55 57 58 57 53 53 54 55 52 46 46 48 48 48 46 47 48 52 56 59 58 55 53 53 52 52 53 52 54 57 60 59 58 56 55 55 58 60 64
16 21 31 22 26 62 73 51 34 31 20 13 12 14 17 21 36 39 38 43 52 58 58 58 61 62 66 63 60 63 65 69 72 69 63 58 60 60 55 50 47 47 48 50 52 52 48 49 48 48 51 56 55 53 47 48 51 51 45 44 44 47 47 49 50 49 48 46 47 47 48 49 49 52 53 50 51 53 56 57 59 60 59 58 57 57 59
31 31 39 33 44 56 51 40 30 29 30 21 9 7 14 27 37 42 38 36 47 54 60 62 59 58 58 60 63 65 70 71 72 72 70 67 65 61 59 60 55 51 46 43 40 43 48 49 45 43 44 47 52 52 49 47 48 47 44 42 43 43 42 43 46 46 46 48 46 44 43 40 41 45 46 49 52 51 53 57 58 55 52 53 52 49 50
57 72 52 48 40 39 40 53 42 38 35 34 19 17 25 29 33 42 50 46 53 63 61 65 66 58 56 61 65 66 67 72 74 71 69 67 63 63 62 63 65 60 57 53 44 35 34 40 47 50 47 45 47 50 51 50 49 50 48 45 45 46 47 47 46 47 49 48 49 49 46 45 44 45 46 46 47 50 52 54 57 57 57 57 57 58 56